Regional Weather Roundup
Issued by NWS Memphis, TN

Home | Current Version | Previous Version | Text Only | Print | Product List | Glossary On
Versions: 1 2 3 4 5 6 7 8 9 10 11 12 13 14 15 16 17 18 19 20 21 22 23 24 25 26 27 28 29 30 31 32 33 34 35 36 37 38 39 40 41 42 43 44 45 46 47 48 49 50
000
ASUS44 KMEG 310910
RWRMEG
MEMPHIS CWA HOURLY WEATHER ROUNDUP
NATIONAL WEATHER SERVICE MEMPHIS TN
300 AM CST SAT JAN 31 2015

...WEST TENNESSEE...

CITY           SKY/WX    TMP DP  RH WIND       PRES   REMARKS
MEMPHIS INTL   CLOUDY    38  23  55 E7        30.38F WCI  33
NWS MEMPHIS      N/A     35 N/A N/A MISG        N/A
JACKSON        CLOUDY    30  25  81 CALM      30.39F
LEXINGTON      CLEAR     25  19  80 CALM      30.37F
SAVANNAH       CLEAR     28  23  80 CALM      30.38F
DYERSBURG      CLOUDY    32  14  47 E3        30.41F
UNION CITY     CLEAR     25  21  86 CALM      30.38F
PARIS          CLEAR     25  19  80 CALM      30.39S


...EASTERN ARKANSAS...

CITY           SKY/WX    TMP DP  RH WIND       PRES   REMARKS
JONESBORO      CLOUDY    33  29  85 CALM      30.39F
WEST MEMPHIS   CLOUDY    36  28  73 E3        30.38F
BATESVILLE     CLOUDY    36  28  75 CALM      30.38F
NEWPORT        CLOUDY    35  31  86 CALM      30.39F
WALNUT RIDGE   CLOUDY    34  27  75 CALM      30.39F
BLYTHEVILLE    CLOUDY    34  27  75 S3        30.40F
SEARCY         CLOUDY    37  30  75 NE3       30.40F
STUTTGART      MOCLDY    37  27  65 E7        30.37F WCI  32
PINE BLUFF     CLOUDY    37  30  75 NE3       30.37F
MONTICELLO     CLEAR     33  27  78 N5        30.36S WCI  29


...NORTH MISSISSIPPI...

CITY           SKY/WX    TMP DP  RH WIND       PRES   REMARKS
TUPELO         CLOUDY    32  25  75 NE6       30.38F WCI  26
OXFORD         CLOUDY    32  25  74 E5        30.39F WCI  27
OLIVE BRANCH   CLEAR     34  27  75 CALM      30.38F
TUNICA         CLOUDY    36  32  87 NE5       30.39F WCI  32
CLARKSDALE     CLOUDY    34  30  86 NE6       30.38F WCI  29
CORINTH        CLOUDY    32  28  86 CALM      30.38F
GRENADA        PTCLDY    32  30  93 CALM      30.38F
GREENWOOD      PTCLDY    30  27  88 NE3       30.37F
COLUMBUS       MOCLDY    29  26  88 N1        30.37F
STARKVILLE     FAIR      28  27  93 CALM      30.36F
GOLDEN TRIANGL CLEAR     28  25  86 CALM      30.35F


...SOUTHEAST MISSOURI...

CITY           SKY/WX    TMP DP  RH WIND       PRES   REMARKS
WEST PLAINS    CLOUDY    34  24  67 S3        30.35F
POPLAR BLUFF   CLOUDY    29  24  82 CALM      30.39S
CAPE GIRARDEAU MOCLDY    30  24  78 CALM      30.40S


...NORTHWEST ALABAMA...

CITY           SKY/WX    TMP DP  RH WIND       PRES   REMARKS
MUSCLE SHOALS  MOCLDY    33  21  61 CALM      30.38F


...MIDDLE TENNESSEE...

CITY           SKY/WX    TMP DP  RH WIND       PRES   REMARKS
NASHVILLE      CLEAR     25  21  85 CALM      30.39F
CLARKSVILLE    MOCLDY    25  22  88 CALM      30.40F
COLUMBIA       CLEAR    N/A N/A N/A CALM      30.37S


...WESTERN KENTUCKY...

CITY           SKY/WX    TMP DP  RH WIND       PRES   REMARKS
PADUCAH        MOCLDY    26  22  84 CALM      30.39F
FORT CAMPBELL  MOCLDY    26  19  77 CALM      30.39F


...CENTRAL ARKANSAS...

CITY           SKY/WX    TMP DP  RH WIND       PRES   REMARKS
LITTLE ROCK    CLOUDY    40  27  59 E5        30.39S


SKY/WX REPORTED AS FAIR MEANS FEW OR NO CLOUDS BELOW
12 THOUSAND FEET.



USA.gov is the U.S. government's official web portal to all federal, state and local government web resources and services.